timestamp,wind_dir_avg,wind_spd_avg,wind_spd_max_dir,wind_spd_gust,battery_voltage,lat,long
2022-11-03 00:04:01+00:00,326.0,10.48,331.0,12.09,12.49,47.59359,-54.27349
2022-11-03 00:14:01+00:00,319.0,10.96,310.0,13.52,12.41,47.59359,-54.27349
2022-11-03 00:24:01+00:00,321.0,10.81,325.0,12.42,12.41,47.59359,-54.27349
2022-11-03 00:34:01+00:00,312.0,10.23,313.0,12.16,12.41,47.59359,-54.27349
2022-11-03 00:44:01+00:00,313.0,13.7,312.0,16.94,12.41,47.59359,-54.27349
2022-11-03 00:54:01+00:00,316.0,10.16,316.0,11.39,12.41,47.59359,-54.27349
2022-11-03 01:04:01+00:00,311.0,9.15,298.0,11.61,12.41,47.59359,-54.27349
2022-11-03 01:14:00+00:00,311.0,9.19,320.0,11.1,12.41,47.59359,-54.27349
2022-11-03 01:24:00+00:00,311.0,10.94,298.0,15.19,12.41,47.59359,-54.27349
2022-11-03 01:34:00+00:00,307.0,13.09,303.0,15.86,12.41,47.59359,-54.27349
2022-11-03 01:44:00+00:00,313.0,8.89,320.0,10.2,12.41,47.59359,-54.27349
2022-11-03 01:54:00+00:00,316.0,8.76,320.0,11.7,12.41,47.59359,-54.27349
2022-11-03 02:04:00+00:00,315.0,11.11,303.0,15.58,12.41,47.59359,-54.27349
2022-11-03 02:14:00+00:00,311.0,11.45,299.0,14.66,12.41,47.59359,-54.27349
2022-11-03 02:24:00+00:00,316.0,10.54,323.0,12.7,12.41,47.59359,-54.27349
2022-11-03 02:34:00+00:00,316.0,11.59,306.0,14.78,12.41,47.59359,-54.27349
2022-11-03 02:44:00+00:00,313.0,11.95,303.0,14.19,12.41,47.59359,-54.27349
2022-11-03 02:54:00+00:00,309.0,13.46,313.0,15.96,12.41,47.59359,-54.27349
2022-11-03 03:04:00+00:00,318.0,13.89,324.0,16.38,12.41,47.59359,-54.27349
2022-11-03 03:14:00+00:00,317.0,12.9,320.0,14.83,12.41,47.59359,-54.27349
2022-11-03 03:24:00+00:00,319.0,12.51,300.0,15.52,12.41,47.59359,-54.27349
2022-11-03 03:34:00+00:00,318.0,14.43,308.0,16.45,12.41,47.59359,-54.27349
2022-11-03 03:44:00+00:00,324.0,17.09,325.0,20.0,12.41,47.59359,-54.27349
2022-11-03 03:54:00+00:00,325.0,15.21,332.0,17.74,12.41,47.59359,-54.27349
2022-11-03 04:04:00+00:00,316.0,14.54,316.0,19.73,12.41,47.59359,-54.27349
2022-11-03 04:14:00+00:00,326.0,15.99,324.0,19.06,12.33,47.59359,-54.27349
2022-11-03 04:24:00+00:00,325.0,14.98,330.0,18.08,12.33,47.59359,-54.27349
2022-11-03 04:34:00+00:00,323.0,13.15,323.0,15.58,12.33,47.59359,-54.27349
2022-11-03 04:44:00+00:00,320.0,14.82,319.0,17.21,12.33,47.59359,-54.27349
2022-11-03 04:54:00+00:00,323.0,14.51,326.0,17.74,12.33,47.59359,-54.27349
2022-11-03 05:04:00+00:00,318.0,12.75,317.0,15.12,12.33,47.59359,-54.27349
2022-11-03 05:14:00+00:00,323.0,13.17,322.0,15.96,12.33,47.59359,-54.27349
2022-11-03 05:24:00+00:00,320.0,12.37,311.0,14.78,12.33,47.59359,-54.27349
2022-11-03 05:34:00+00:00,318.0,12.94,322.0,14.96,12.33,47.59359,-54.27349
2022-11-03 05:44:00+00:00,321.0,13.38,322.0,18.0,12.33,47.59359,-54.27349
2022-11-03 05:54:00+00:00,322.0,13.63,325.0,15.66,12.33,47.59359,-54.27349
2022-11-03 06:04:00+00:00,318.0,14.85,323.0,17.09,12.33,47.59359,-54.27349
2022-11-03 06:14:00+00:00,319.0,13.72,324.0,15.94,12.33,47.59359,-54.27349
2022-11-03 06:24:00+00:00,322.0,14.31,307.0,17.25,12.33,47.59359,-54.27349
2022-11-03 06:34:00+00:00,317.0,14.51,316.0,17.69,12.33,47.59359,-54.27349
2022-11-03 06:44:00+00:00,317.0,13.67,314.0,15.32,12.33,47.59359,-54.27349
2022-11-03 06:54:00+00:00,318.0,12.24,318.0,14.18,12.33,47.59359,-54.27349
2022-11-03 07:04:00+00:00,322.0,12.62,324.0,13.97,12.33,47.59359,-54.27349
2022-11-03 07:14:00+00:00,314.0,10.42,319.0,14.53,12.17,47.59359,-54.27349
2022-11-03 07:24:00+00:00,316.0,10.45,324.0,12.49,12.17,47.59359,-54.27349
2022-11-03 07:34:00+00:00,316.0,10.86,313.0,12.99,12.17,47.59359,-54.27349
2022-11-03 07:44:00+00:00,315.0,8.4,305.0,11.45,12.17,47.59359,-54.27349
2022-11-03 07:54:00+00:00,310.0,11.36,311.0,13.17,12.17,47.59359,-54.27349
2022-11-03 08:04:00+00:00,321.0,13.07,321.0,14.98,12.17,47.59359,-54.27349
2022-11-03 08:14:00+00:00,319.0,11.8,324.0,13.96,12.17,47.59359,-54.27349
2022-11-03 08:24:00+00:00,314.0,12.7,308.0,15.32,12.17,47.59359,-54.27349
2022-11-03 08:34:00+00:00,318.0,13.11,311.0,14.6,12.17,47.59359,-54.27349
2022-11-03 08:44:00+00:00,310.0,12.2,296.0,18.95,12.17,47.59359,-54.27349
2022-11-03 08:54:00+00:00,315.0,11.71,321.0,12.88,12.17,47.59359,-54.27349
2022-11-03 09:04:00+00:00,313.0,10.64,308.0,12.32,12.17,47.59359,-54.27349
2022-11-03 09:14:01+00:00,306.0,9.92,303.0,11.73,12.17,47.59359,-54.27349
2022-11-03 09:24:01+00:00,305.0,9.92,303.0,11.88,12.17,47.59359,-54.27349
2022-11-03 09:34:01+00:00,304.0,9.9,298.0,11.62,12.17,47.59359,-54.27349
2022-11-03 09:44:01+00:00,298.0,9.55,297.0,11.36,12.17,47.59359,-54.27349
2022-11-03 09:54:01+00:00,315.0,10.62,310.0,13.08,12.17,47.59359,-54.27349
2022-11-03 10:04:01+00:00,299.0,9.96,301.0,12.02,12.17,47.59359,-54.27349
2022-11-03 10:14:01+00:00,310.0,10.25,311.0,12.98,12.09,47.59359,-54.27349
2022-11-03 10:24:01+00:00,308.0,10.55,307.0,12.41,12.09,47.59359,-54.27349
2022-11-03 10:34:01+00:00,299.0,8.77,300.0,11.69,12.09,47.59359,-54.27349
2022-11-03 10:44:01+00:00,312.0,8.51,300.0,11.64,12.09,47.59359,-54.27349
2022-11-03 10:54:01+00:00,299.0,9.42,310.0,11.59,12.09,47.59359,-54.27349
2022-11-03 11:04:01+00:00,315.0,6.94,300.0,11.02,12.09,47.59359,-54.27349
2022-11-03 11:14:01+00:00,313.0,10.02,312.0,12.77,12.81,47.59359,-54.27349
2022-11-03 11:24:01+00:00,310.0,11.01,309.0,12.93,12.81,47.59359,-54.27349
2022-11-03 11:34:01+00:00,314.0,9.63,308.0,12.3,12.81,47.59359,-54.27349
2022-11-03 11:44:01+00:00,320.0,11.65,325.0,13.98,12.81,47.59359,-54.27349
2022-11-03 11:54:01+00:00,315.0,12.45,311.0,14.62,12.81,47.59359,-54.27349
2022-11-03 12:04:01+00:00,313.0,12.43,309.0,13.75,12.81,47.59359,-54.27349
2022-11-03 12:14:00+00:00,320.0,11.14,316.0,14.15,14.08,47.59359,-54.27349
2022-11-03 12:24:00+00:00,323.0,10.31,311.0,12.58,14.08,47.59359,-54.27349
2022-11-03 12:34:00+00:00,327.0,11.88,324.0,15.65,14.08,47.59359,-54.27349
2022-11-03 12:44:00+00:00,327.0,14.55,325.0,17.25,14.08,47.59359,-54.27349
2022-11-03 12:54:00+00:00,325.0,10.17,314.0,12.86,14.08,47.59359,-54.27349
2022-11-03 13:04:00+00:00,329.0,9.88,320.0,12.81,14.08,47.59359,-54.27349
2022-11-03 13:14:00+00:00,320.0,13.49,328.0,17.84,13.76,47.59359,-54.27349
2022-11-03 13:24:00+00:00,331.0,12.03,328.0,15.27,13.76,47.59359,-54.27349
2022-11-03 13:34:00+00:00,315.0,10.83,322.0,12.1,13.76,47.59359,-54.27349
2022-11-03 13:44:00+00:00,315.0,10.79,311.0,12.92,13.76,47.59359,-54.27349
2022-11-03 13:54:00+00:00,312.0,9.89,311.0,12.85,13.76,47.59359,-54.27349
2022-11-03 14:04:00+00:00,324.0,12.02,321.0,14.46,13.76,47.59359,-54.27349
2022-11-03 14:14:00+00:00,336.0,14.87,332.0,17.53,13.6,47.59359,-54.27349
2022-11-03 14:24:00+00:00,312.0,11.6,309.0,15.82,13.6,47.59359,-54.27349
2022-11-03 14:34:00+00:00,330.0,15.05,326.0,18.25,13.6,47.59359,-54.27349
2022-11-03 14:44:00+00:00,327.0,12.63,327.0,14.32,13.6,47.59359,-54.27349
2022-11-03 14:54:00+00:00,323.0,11.0,315.0,13.36,13.6,47.59359,-54.27349
2022-11-03 15:04:00+00:00,325.0,11.33,319.0,13.1,13.6,47.59359,-54.27349
2022-11-03 15:14:00+00:00,338.0,11.64,326.0,13.23,13.6,47.59359,-54.27349
2022-11-03 15:24:00+00:00,333.0,13.46,330.0,16.04,13.6,47.59359,-54.27349
2022-11-03 15:34:00+00:00,313.0,12.08,313.0,13.43,13.6,47.59359,-54.27349
2022-11-03 15:44:00+00:00,316.0,10.61,310.0,14.35,13.6,47.59359,-54.27349
2022-11-03 15:54:00+00:00,328.0,10.26,336.0,12.93,13.6,47.59359,-54.27349
2022-11-03 16:04:00+00:00,308.0,11.12,309.0,14.0,13.6,47.59359,-54.27349
2022-11-03 16:14:00+00:00,326.0,12.92,328.0,14.67,13.76,47.59359,-54.27349
2022-11-03 16:24:00+00:00,304.0,12.98,309.0,15.4,13.76,47.59359,-54.27349
2022-11-03 16:34:00+00:00,316.0,10.74,322.0,12.3,13.76,47.59359,-54.27349
2022-11-03 16:44:00+00:00,307.0,8.83,303.0,10.77,13.76,47.59359,-54.27349
2022-11-03 16:54:00+00:00,303.0,9.19,310.0,11.57,13.76,47.59359,-54.27349
2022-11-03 17:04:00+00:00,319.0,8.61,311.0,11.04,13.76,47.59359,-54.27349
2022-11-03 17:14:00+00:00,311.0,12.43,308.0,15.13,13.76,47.59359,-54.27349
2022-11-03 17:24:00+00:00,315.0,10.69,315.0,14.72,13.76,47.59359,-54.27349
2022-11-03 17:34:00+00:00,315.0,10.86,325.0,13.85,13.76,47.59359,-54.27349
2022-11-03 17:44:00+00:00,297.0,11.3,298.0,14.1,13.76,47.59359,-54.27349
2022-11-03 17:54:00+00:00,307.0,11.11,305.0,14.8,13.76,47.59359,-54.27349
2022-11-03 18:04:00+00:00,301.0,9.67,296.0,12.25,13.76,47.59359,-54.27349
2022-11-03 18:14:00+00:00,309.0,9.75,322.0,11.78,13.68,47.59359,-54.27349
2022-11-03 18:24:00+00:00,309.0,11.07,302.0,13.71,13.68,47.59359,-54.27349
2022-11-03 18:34:00+00:00,314.0,9.25,312.0,10.88,13.68,47.59359,-54.27349
2022-11-03 18:44:00+00:00,316.0,9.12,324.0,11.63,13.68,47.59359,-54.27349
2022-11-03 18:54:00+00:00,308.0,11.53,304.0,13.73,13.68,47.59359,-54.27349
2022-11-03 19:04:00+00:00,305.0,10.8,302.0,14.05,13.68,47.59359,-54.27349
2022-11-03 19:14:00+00:00,304.0,8.93,307.0,11.48,13.84,47.59359,-54.27349
2022-11-03 19:24:00+00:00,305.0,9.57,300.0,12.23,13.84,47.59359,-54.27349
2022-11-03 19:34:00+00:00,295.0,10.75,286.0,14.38,13.84,47.59359,-54.27349
2022-11-03 19:44:00+00:00,299.0,12.12,289.0,15.24,13.84,47.59359,-54.27349
2022-11-03 19:54:00+00:00,301.0,9.0,284.0,13.36,13.84,47.59359,-54.27349
2022-11-03 20:04:00+00:00,297.0,10.98,289.0,14.59,13.84,47.59359,-54.27349
2022-11-03 20:14:00+00:00,299.0,10.13,288.0,14.58,13.53,47.59359,-54.27349
2022-11-03 20:24:00+00:00,294.0,9.86,287.0,13.6,13.53,47.59359,-54.27349
2022-11-03 20:34:00+00:00,287.0,8.04,285.0,9.99,13.53,47.59359,-54.27349
2022-11-03 20:44:00+00:00,285.0,8.17,278.0,9.78,13.53,47.59359,-54.27349
2022-11-03 20:54:00+00:00,284.0,7.92,276.0,11.69,13.53,47.59359,-54.27349
2022-11-03 21:04:00+00:00,300.0,8.66,305.0,9.83,13.53,47.59359,-54.27349
2022-11-03 21:14:00+00:00,295.0,8.21,300.0,9.64,12.73,47.59359,-54.27349
2022-11-03 21:24:00+00:00,300.0,7.88,302.0,8.98,12.73,47.59359,-54.27349
2022-11-03 21:34:00+00:00,302.0,8.56,307.0,9.77,12.73,47.59359,-54.27349
2022-11-03 21:44:00+00:00,295.0,6.5,295.0,7.95,12.73,47.59359,-54.27349
2022-11-03 21:54:00+00:00,312.0,7.34,309.0,8.9,12.73,47.59359,-54.27349
2022-11-03 22:04:00+00:00,301.0,6.38,307.0,7.98,12.73,47.59359,-54.27349
2022-11-03 22:14:00+00:00,288.0,6.44,291.0,7.2,12.49,47.59359,-54.27349
2022-11-03 22:24:00+00:00,297.0,6.23,297.0,7.65,12.49,47.59359,-54.27349
2022-11-03 22:34:00+00:00,293.0,7.24,286.0,8.43,12.49,47.59359,-54.27349
2022-11-03 22:44:00+00:00,299.0,6.84,305.0,8.21,12.49,47.59359,-54.27349
2022-11-03 22:54:00+00:00,293.0,5.52,287.0,7.5,12.49,47.59359,-54.27349
2022-11-03 23:04:00+00:00,274.0,6.17,286.0,6.92,12.49,47.59359,-54.27349
2022-11-03 23:14:00+00:00,280.0,6.22,286.0,7.25,12.41,47.59359,-54.27349
2022-11-03 23:24:00+00:00,294.0,4.67,286.0,6.34,12.41,47.59359,-54.27349
2022-11-03 23:34:00+00:00,284.0,5.67,282.0,6.49,12.41,47.59359,-54.27349
2022-11-03 23:44:00+00:00,277.0,5.35,275.0,6.44,12.41,47.59359,-54.27349
2022-11-03 23:54:00+00:00,276.0,6.89,273.0,7.77,12.41,47.59359,-54.27349
